Find Starlink 3396

NORAD ID: 51129 Int'l Des: 2022-005 Owner: SPXS Country: US Constellation: starlink operational
LEOCIRCULAR

リアルタイム位置

3D地球を読み込み中...

Starlink 3396について

説明を読み込み中...

次回通過

Passes for default location (London). Set your location on the main map for personalized predictions.

高度履歴

Loading altitude history...

軌道要素

1 51129U 22005AB 26127.45034993 -.00004482 00000-0 -26367-3 0 9999
2 51129 53.2181 35.3325 0001519 81.1549 278.9615 15.08839534237607
Epoch: May 7, 2026 • Age: 14 hours

現在のステータス

高度 548.1 km
速度 7.59 km/s
衛星直下点 -26.50°S, 130.53°E
打ち上げ日 Jan 19, 2022
運用期間 4.2 years
タイプ internet

技術仕様

分類 Payload
質量 297.00 kg
乾燥質量 275.00 kg
総質量 297.00 kg
長さ 0.20 m
直径 2.80 m
スパン 9.00 m
形状 Box + pan
製造者 SPXS
バスタイプ Starlink
フェーズステータス In Orbit
所有者/国 SPXS/US

Most Searched